St. Marys, AK

8:19 PM AKST on December 09, 2019 (GMT -0900)
Saint Mary's

Weather History for PASM - November, 2019

Change the Weather History Date:

Tuesday, November 12, 2019

  Actual Average Record
Temperature  
Mean Temperature 28 °F -  
Max Temperature 32 °F 23 °F 37 °F (2013)
Min Temperature 21 °F 16 °F -5 °F (2001)
Degree Days  
Heating Degree Days 38    
Moisture  
Dew Point 23 °F    
Average Humidity 82    
Maximum Humidity 89    
Minimum Humidity 74    
Precipitation  
Precipitation 0.00 in - - ()
Sea Level Pressure  
Sea Level Pressure 29.69 in    
Wind  
Wind Speed 12 mph ()    
Max Wind Speed 26 mph    
Max Gust Speed 34 mph    
Visibility 10.0 miles    
Events      
Averages and records for this station are not official NWS values.
T = Trace of Precipitation, MM = Missing Value Source: Averaged Metar Reports

Daily Weather History Graph

Daily Weather History Graph

Search for Another Location

Airport or City:

Astronomy

Nov. 12, 2019 Rise Set
Actual Time 9:56 AM AKST 5:17 PM AKST
Civil Twilight 9:04 AM AKST 6:09 PM AKST
Nautical Twilight 8:08 AM AKST 7:04 PM AKST
Astronomical Twilight 7:16 AM AKST 7:56 PM AKST
Moon 5:56 PM AKST (11/12) 9:49 AM AKST (11/12)
Length of Visible Light 9h 05m
Length of Day
7h 20m
Full, 100% of the Moon is Illuminated
Nov 12
Full
Nov 19
Last Quarter
Nov 26
New
Dec 3
First Quarter
Dec 11
Full

Hourly Weather History & Observations

Time (AKST) Temp. Windchill Dew Point Humidity Pressure Visibility Wind Dir Wind Speed Gust Speed Precip Events Conditions
12:02 AM 30.9 °F 21.7 °F 27.0 °F 85% 29.75 in 10.0 mi East 11.5 mph - N/A   Mostly Cloudy
1:02 AM 30.0 °F 24.1 °F 26.1 °F 85% 29.75 in 10.0 mi ENE 5.8 mph - N/A   Scattered Clouds
2:02 AM 28.9 °F 21.9 °F 25.0 °F 85% 29.75 in 10.0 mi East 6.9 mph - N/A   Partly Cloudy
3:02 AM 28.9 °F 19.2 °F 25.0 °F 85% 29.75 in 10.0 mi ENE 11.5 mph - N/A   Clear
4:02 AM 28.0 °F 20.0 °F 24.1 °F 85% 29.75 in 10.0 mi NE 8.1 mph - N/A   Clear
5:02 AM 28.0 °F 18.1 °F 24.1 °F 85% 29.74 in 10.0 mi ENE 11.5 mph - N/A   Clear
6:02 AM 28.0 °F 18.6 °F 25.0 °F 88% 29.74 in 10.0 mi ENE 10.4 mph - N/A   Clear
7:02 AM 28.0 °F 20.8 °F 25.0 °F 88% 29.74 in 10.0 mi ENE 6.9 mph - N/A   Clear
8:02 AM 27.0 °F 18.7 °F 24.1 °F 89% 29.72 in 10.0 mi NE 8.1 mph - N/A   Clear
9:02 AM 28.9 °F 18.6 °F 25.0 °F 85% 29.71 in 10.0 mi NE 12.7 mph - N/A   Clear
10:02 AM 28.9 °F 18.2 °F 25.0 °F 85% 29.72 in 10.0 mi NE 13.8 mph 21.9 mph N/A   Clear
11:02 AM 30.0 °F 18.7 °F 27.0 °F 88% 29.71 in 10.0 mi ENE 16.1 mph - N/A   Clear
12:02 PM 30.9 °F 19.8 °F 27.0 °F 85% 29.70 in 10.0 mi NE 16.1 mph 23.0 mph N/A   Clear
1:02 PM 32.0 °F 19.8 °F 26.1 °F 79% 29.69 in 10.0 mi ENE 20.7 mph 26.5 mph N/A   Clear
2:02 PM 30.9 °F 18.7 °F 26.1 °F 82% 29.67 in 10.0 mi ENE 19.6 mph 27.6 mph N/A   Clear
3:02 PM 30.9 °F 17.8 °F 25.0 °F 79% 29.66 in 10.0 mi ENE 23.0 mph 32.2 mph N/A   Clear
4:02 PM 28.9 °F 15.1 °F 24.1 °F 82% 29.65 in 10.0 mi ENE 23.0 mph 29.9 mph N/A   Clear
5:02 PM 28.0 °F 14.3 °F 23.0 °F 81% 29.63 in 10.0 mi NE 21.9 mph 32.2 mph N/A   Clear
6:02 PM 27.0 °F 12.5 °F 21.0 °F 78% 29.63 in 10.0 mi ENE 23.0 mph 29.9 mph N/A   Clear
7:02 PM 25.0 °F 8.9 °F 19.0 °F 78% 29.62 in 10.0 mi ENE 26.5 mph 34.5 mph N/A   Clear
8:02 PM 24.1 °F 8.7 °F 18.0 °F 77% 29.62 in 10.0 mi ENE 23.0 mph 33.4 mph N/A   Clear
9:02 PM 24.1 °F 8.0 °F 17.1 °F 75% 29.62 in 10.0 mi East 25.3 mph 33.4 mph N/A   Clear
10:02 PM 23.0 °F 7.6 °F 16.0 °F 74% 29.62 in 10.0 mi ENE 21.9 mph 34.5 mph N/A   Clear
11:02 PM 21.9 °F 5.8 °F 15.1 °F 75% 29.63 in 10.0 mi ENE 23.0 mph 34.5 mph N/A   Clear